Change the Weather History Date:

Wednesday, November 13, 2013

  Actual Average Record
Temperature  
Mean Temperature 38 °F 32 °F  
Max Temperature 47 °F 43 °F 67 °F (1999)
Min Temperature 28 °F 21 °F -21 °F (2014)
Degree Days  
Heating Degree Days 27 33  
Month to date heating degree days 350 390  
Since 1 July heating degree days 1296 1270  
Cooling Degree Days 0 0  
Month to date cooling degree days 0 0  
Year to date cooling degree days 798 494  
Moisture  
Dew Point 29 °F    
Average Humidity 69    
Maximum Humidity 85    
Minimum Humidity 53    
Precipitation  
Precipitation 0.00 in 0.02 in 0.55 in (1944)
Month to date precipitation T 0.24  
Year to date precipitation 9.01 8.85  
Snow  
Snow 0.00 in - - ()
Month to date snowfall 0.0  
Since 1 July snowfall 24.8  
Since 1 September snowfall 24.8  
Snow Depth 0.00 in    
Sea Level Pressure  
Sea Level Pressure 30.20 in    
Wind  
Wind Speed 7 mph (North)    
Max Wind Speed 24 mph    
Max Gust Speed 30 mph    
Visibility 10 miles    
Events      
T = Trace of Precipitation, MM = Missing Value Source: NWS Daily Summary

Daily Weather History Graph

Daily Weather History Graph

Search for Another Location

Airport or City:

Trip Planner

Search our weather history database for the weather conditions in past years. The results will help you decide how hot, cold, wet, or windy it might be!

Date:

Astronomy

Nov. 13, 2013 Rise Set
Actual Time 7:04 AM MST 4:51 PM MST
Civil Twilight 6:33 AM MST 5:22 PM MST
Nautical Twilight 5:59 AM MST 5:56 PM MST
Astronomical Twilight 5:25 AM MST 6:29 PM MST
Moon 2:45 PM MST (11/13) 2:54 AM MST (11/13)
Length of Visible Light 10h 48m
Length of Day
9h 47m
Waxing Gibbous, 85% of the Moon is Illuminated
Nov 13
Waxing Gibbous
Nov 17
Full
Nov 25
Last Quarter
Dec 2
New
Dec 9
First Quarter

Hourly Weather History & Observations

Time (MST) Temp. Windchill Dew Point Humidity Pressure Visibility Wind Dir Wind Speed Gust Speed Precip Events Conditions
12:53 AM 32.0 °F 26.4 °F 26.1 °F 79% 30.35 in 10.0 mi North 5.8 mph - N/A   Clear
1:53 AM 30.9 °F 26.2 °F 25.0 °F 79% 30.34 in 10.0 mi NE 4.6 mph - N/A   Clear
2:53 AM 34.0 °F - 27.0 °F 75% 30.31 in 10.0 mi Calm Calm - N/A   Clear
3:53 AM 30.9 °F 27.5 °F 26.1 °F 82% 30.30 in 10.0 mi ENE 3.5 mph - N/A   Clear
4:53 AM 30.0 °F 22.4 °F 26.1 °F 85% 30.32 in 10.0 mi North 8.1 mph - N/A   Clear
5:53 AM 34.0 °F 31.0 °F 27.0 °F 75% 30.29 in 10.0 mi NE 3.5 mph - N/A   Clear
6:53 AM 32.0 °F 26.4 °F 28.0 °F 85% 30.32 in 10.0 mi NNW 5.8 mph - N/A   Clear
7:53 AM 30.9 °F - 27.0 °F 85% 30.31 in 10.0 mi Calm Calm - N/A   Scattered Clouds
8:53 AM 33.1 °F 27.7 °F 28.0 °F 82% 30.30 in 10.0 mi SW 5.8 mph - N/A   Clear
9:53 AM 37.0 °F 34.5 °F 28.9 °F 73% 30.27 in 10.0 mi Variable 3.5 mph - N/A   Clear
10:53 AM 39.0 °F 35.7 °F 30.9 °F 73% 30.23 in 10.0 mi North 4.6 mph - N/A   Partly Cloudy
11:53 AM 44.1 °F 42.5 °F 28.9 °F 55% 30.19 in 10.0 mi WSW 3.5 mph - N/A   Mostly Cloudy
12:53 PM 45.0 °F - 28.9 °F 53% 30.14 in 10.0 mi Calm Calm - N/A   Mostly Cloudy
1:53 PM 44.1 °F 40.8 °F 32.0 °F 63% 30.12 in 10.0 mi East 5.8 mph - N/A   Overcast
2:53 PM 43.0 °F 40.3 °F 30.9 °F 62% 30.11 in 10.0 mi ESE 4.6 mph - N/A   Overcast
3:53 PM 41.0 °F 38.0 °F 30.9 °F 67% 30.12 in 10.0 mi NNE 4.6 mph - N/A   Scattered Clouds
4:53 PM 43.0 °F 40.3 °F 30.9 °F 62% 30.11 in 10.0 mi Variable 4.6 mph - N/A   Overcast
5:53 PM 45.0 °F 43.5 °F 30.9 °F 58% 30.09 in 10.0 mi Variable 3.5 mph - N/A   Overcast
6:53 PM 42.1 °F 36.6 °F 30.9 °F 65% 30.12 in 10.0 mi NNW 9.2 mph - N/A   Scattered Clouds
7:53 PM 46.0 °F 41.4 °F 32.0 °F 58% 30.11 in 10.0 mi NNW 9.2 mph - N/A   Clear
8:53 PM 42.1 °F 34.5 °F 30.0 °F 62% 30.12 in 10.0 mi NNW 15.0 mph - N/A   Clear
9:53 PM 43.0 °F 34.8 °F 28.0 °F 56% 30.11 in 10.0 mi NW 18.4 mph - N/A   Clear
10:53 PM 41.0 °F 31.9 °F 26.1 °F 55% 30.12 in 10.0 mi NW 19.6 mph - N/A   Clear
11:53 PM 42.1 °F 33.6 °F 26.1 °F 53% 30.10 in 10.0 mi NW 18.4 mph 27.6 mph N/A   Mostly Cloudy